London, United Kingdom

2:26 AM BST on July 27, 2017 (GMT +0100)
Heathrow

Weather History for EGLL - December, 2010

Change the Weather History Date:

Wednesday, December 22, 2010

  Actual Average Record
Temperature  
Mean Temperature 34 °F -  
Max Temperature 35 °F 45 °F 59 °F (2015)
Min Temperature 32 °F 35 °F 26 °F (2006)
Degree Days  
Heating Degree Days 32    
Moisture  
Dew Point 31 °F    
Average Humidity 89    
Maximum Humidity 93    
Minimum Humidity 75    
Precipitation  
Precipitation 0.08 in - - ()
Sea Level Pressure  
Sea Level Pressure 29.70 in    
Wind  
Wind Speed 5 mph ()    
Max Wind Speed 12 mph    
Max Gust Speed -    
Visibility 4.0 miles    
Events      
Averages and records for this station are not official NWS values.
T = Trace of Precipitation, MM = Missing Value Source: Averaged Metar Reports

Daily Weather History Graph

Daily Weather History Graph

Search for Another Location

Airport or City:

Trip Planner

Search our weather history database for the weather conditions in past years. The results will help you decide how hot, cold, wet, or windy it might be!

Date:

Astronomy

Dec. 22, 2010 Rise Set
Actual Time 8:05 AM GMT 3:55 PM GMT
Civil Twilight 7:25 AM GMT 4:35 PM GMT
Nautical Twilight 6:41 AM GMT 5:18 PM GMT
Astronomical Twilight 6:01 AM GMT 5:59 PM GMT
Moon 5:23 PM GMT (12/22) 8:56 AM GMT (12/22)
Length of Visible Light 9h 10m
Length of Day
7h 49m
Full, 98% of the Moon is Illuminated
Dec 22
Full
Dec 28
Last Quarter
Jan 4
New
Jan 12
First Quarter
Jan 19
Full

Hourly Weather History & Observations

Time (GMT) Temp. Windchill Dew Point Humidity Pressure Visibility Wind Dir Wind Speed Gust Speed Precip Events Conditions
12:20 AM 33.8 °F 29.6 °F 32.0 °F 93% 29.65 in 2.8 mi NE 4.6 mph - N/A   Mostly Cloudy
12:50 AM 33.8 °F 30.8 °F 32.0 °F 93% 29.65 in - NE 3.5 mph - N/A   Mostly Cloudy
1:20 AM 33.8 °F 30.8 °F 32.0 °F 93% 29.65 in 2.5 mi NE 3.5 mph - N/A   Mostly Cloudy
1:50 AM 33.8 °F 29.6 °F 32.0 °F 93% 29.65 in - NNE 4.6 mph - N/A   Mostly Cloudy
2:20 AM 33.8 °F 30.8 °F 32.0 °F 93% 29.65 in - Variable 3.5 mph - N/A   Mostly Cloudy
2:50 AM 33.8 °F - 32.0 °F 93% 29.65 in - Variable 2.3 mph - N/A   Mostly Cloudy
3:20 AM 33.8 °F 30.8 °F 32.0 °F 93% 29.65 in - North 3.5 mph - N/A   Haze
3:50 AM 33.8 °F 29.6 °F 32.0 °F 93% 29.65 in - North 4.6 mph - N/A   Haze
4:20 AM 33.8 °F 30.8 °F 32.0 °F 93% 29.65 in - North 3.5 mph - N/A   Haze
4:50 AM 33.8 °F 29.6 °F 32.0 °F 93% 29.65 in - North 4.6 mph - N/A   Haze
5:20 AM 33.8 °F 30.8 °F 32.0 °F 93% 29.65 in 1.7 mi Variable 3.5 mph - N/A   Haze
5:50 AM 34 °F - 32 °F 89% 29.66 in 2 mi NNE 3.5 mph - -   Unknown Precipitation
5:50 AM 33.8 °F 30.8 °F 32.0 °F 93% 29.65 in 1.6 mi Variable 3.5 mph - N/A   Haze
6:20 AM 33.8 °F 29.6 °F 32.0 °F 93% 29.65 in 1.6 mi North 4.6 mph - N/A   Haze
6:50 AM 33.8 °F 29.6 °F 32.0 °F 93% 29.65 in 1.6 mi North 4.6 mph - N/A   Mostly Cloudy
7:20 AM 33.8 °F 29.6 °F 32.0 °F 93% 29.68 in - North 4.6 mph - N/A   Overcast
7:50 AM 33.8 °F 30.8 °F 32.0 °F 93% 29.68 in 1.8 mi Variable 3.5 mph - N/A   Overcast
8:20 AM 33.8 °F 28.6 °F 32.0 °F 93% 29.68 in 1.4 mi North 5.8 mph - N/A   Mostly Cloudy
8:50 AM 34 °F - 33 °F 92% 29.69 in 2 mi North 4.6 mph - -   Mist
8:50 AM 33.8 °F 29.6 °F 32.0 °F 93% 29.68 in 1.1 mi North 4.6 mph - N/A   Mostly Cloudy
9:20 AM 33.8 °F 29.6 °F 32.0 °F 93% 29.68 in 1.1 mi North 4.6 mph - N/A   Mostly Cloudy
9:50 AM 33.8 °F 28.6 °F 32.0 °F 93% 29.68 in 1.6 mi North 5.8 mph - N/A   Overcast
10:20 AM 33.8 °F 28.6 °F 32.0 °F 93% 29.71 in - North 5.8 mph - N/A   Mostly Cloudy
10:50 AM 33.8 °F 28.6 °F 32.0 °F 93% 29.71 in - North 5.8 mph - N/A   Mostly Cloudy
11:20 AM 33.8 °F 29.6 °F 32.0 °F 93% 29.71 in 2.2 mi North 4.6 mph - N/A   Mostly Cloudy
11:50 AM 35 °F - 32 °F 85% 29.70 in 2 mi North 6.9 mph - -   Unknown Precipitation
11:50 AM 33.8 °F 27.7 °F 32.0 °F 93% 29.71 in 2.2 mi North 6.9 mph - N/A   Mostly Cloudy
12:20 PM 33.8 °F 27.7 °F 32.0 °F 93% 29.68 in - North 6.9 mph - N/A   Mostly Cloudy
12:50 PM 33.8 °F 27.7 °F 32.0 °F 93% 29.68 in 2.5 mi North 6.9 mph - N/A   Mostly Cloudy
1:20 PM 35.6 °F 30.7 °F 32.0 °F 87% 29.68 in 3.1 mi North 5.8 mph - N/A   Mostly Cloudy
1:50 PM 35.6 °F 30.7 °F 32.0 °F 87% 29.68 in 3.1 mi North 5.8 mph - N/A   Mostly Cloudy
2:20 PM 33.8 °F 27.7 °F 32.0 °F 93% 29.68 in 3.7 mi North 6.9 mph - N/A   Mostly Cloudy
2:50 PM 35 °F - 32 °F 83% 29.71 in 4 mi North 10.4 mph - -   Light Haze
2:50 PM 33.8 °F 26.4 °F 32.0 °F 93% 29.71 in 3.1 mi North 9.2 mph - N/A   Mostly Cloudy
3:20 PM 33.8 °F 28.6 °F 32.0 °F 93% 29.71 in 3.1 mi North 5.8 mph - N/A   Mostly Cloudy
3:50 PM 33.8 °F 27.0 °F 32.0 °F 93% 29.71 in 5.0 mi NNE 8.1 mph - N/A   Mostly Cloudy
4:20 PM 33.8 °F 25.8 °F 32.0 °F 93% 29.71 in 4.3 mi NNE 10.4 mph - N/A   Mostly Cloudy
4:50 PM 33.8 °F 26.4 °F 32.0 °F 93% 29.74 in 6.2 mi NE 9.2 mph - N/A   Mostly Cloudy
5:20 PM 33.8 °F 25.3 °F 30.2 °F 87% 29.74 in 6.2 mi NNE 11.5 mph - N/A   Scattered Clouds
5:50 PM 34 °F - 29 °F 75% 29.75 in 13 mi NNE 10.4 mph - -   Mostly Cloudy
5:50 PM 33.8 °F 27.0 °F 28.4 °F 81% 29.74 in 6.2 mi NNE 8.1 mph - N/A   Mostly Cloudy
6:20 PM 33.8 °F 27.0 °F 28.4 °F 81% 29.74 in 6.2 mi NNE 8.1 mph - N/A   Mostly Cloudy
6:50 PM 33.8 °F 27.0 °F 28.4 °F 81% 29.74 in 6.2 mi NNE 8.1 mph - N/A   Scattered Clouds
7:20 PM 33.8 °F 27.0 °F 28.4 °F 81% 29.74 in 6.2 mi NNE 8.1 mph - N/A   Scattered Clouds
7:50 PM 32.0 °F 26.4 °F 28.4 °F 87% 29.74 in - NNE 5.8 mph - N/A   Clear
8:20 PM 32.0 °F 24.8 °F 28.4 °F 87% 29.74 in - NNE 8.1 mph - N/A   Clear
8:50 PM 32 °F - 28 °F 78% 29.75 in 9 mi NNE 9.2 mph - -   Mostly Cloudy
8:50 PM 32.0 °F 24.8 °F 28.4 °F 87% 29.74 in - NNE 8.1 mph - N/A   Clear
9:20 PM 32.0 °F 25.6 °F 28.4 °F 87% 29.77 in - NNE 6.9 mph - N/A   Clear
9:50 PM 32.0 °F 25.6 °F 26.6 °F 80% 29.77 in - NNE 6.9 mph - N/A   Clear
10:20 PM 32.0 °F 24.8 °F 26.6 °F 80% 29.77 in - North 8.1 mph - N/A   Clear
10:50 PM 32.0 °F 24.8 °F 28.4 °F 87% 29.80 in 6.2 mi NNE 8.1 mph - N/A   Scattered Clouds
11:20 PM 32.0 °F 24.8 °F 28.4 °F 87% 29.80 in 6.2 mi NNE 8.1 mph - N/A   Scattered Clouds
11:50 PM 32 °F - 27 °F 76% 29.81 in 9 mi NNE 9.2 mph - -   Partly Cloudy
11:50 PM 32.0 °F 24.8 °F 26.6 °F 80% 29.80 in 6.2 mi NNE 8.1 mph - N/A   Partly Cloudy